{"data":{"norad_id":67297,"intl_designator":"2025-313BB","name":"SITRO-AIS-61","alt_names":[],"object_type":"PAYLOAD","status":"ACTIVE","operator":null,"country":"CIS","launch_date":"2025-12-28","launch_site_code":"VOSTO","launch_vehicle":null,"mission":null,"orbit_class":"UNKNOWN","rcs_meters":null,"size_class":null,"mass_kg":null,"dimensions":null,"purposes":[],"wikipedia_slug":null,"has_3d_model":false,"image_url":null,"decayed_at":null,"tle_current":{"epoch":"2026-09-20T14:17:57.449184Z","epoch_age_seconds":94873,"freshness":"FRESH","line1":"1 67297U 25313BB  26263.59580381  .00006611  00000+0  25324-3 0  9995","line2":"2 67297  97.3867 337.6791 0008510  31.8045 328.3707 15.26835154 40536","mean_motion":15.26835154,"eccentricity":0.000851,"inclination_deg":97.3867,"raan_deg":337.6791,"arg_perigee_deg":31.8045,"mean_anomaly_deg":328.3707,"bstar":0.00025324,"rev_number":4053,"period_min":94.312735479498,"perigee_km":479.43957141537,"apogee_km":491.12110772732,"semimajor_km":6863.4173395713,"source":"CELESTRAK","updated_at":"2026-09-21T09:00:16.551968Z"}}}